Home > Weather > Löhne > Past weeks

Flag for Germany Weather for the Past 2 Weeks in Löhne, North Rhine-Westphalia, Germany

Now
46 °F

Light rain. More clouds than sun.


Feels Like: 44 °F
Forecast: 41 / 59 °F
Wind: 6 mph from North

Location: Bueckeburg

Current Time: Apr 30, 2016 at 4:17:33 PM

Latest Report: Apr 30, 2016 at 3:20 PM


Visibility: N/A

Pressure: 30.09 "Hg

Humidity: 82%

Dew Point: 41 °F

Location of LöhneLocation

Historic Weather in Löhne — Graph

°F

Löhne Temperature Yesterday

Maximum temperature yesterday: 55 °F (at 2:20 PM)
Minimum temperature yesterday: 37 °F (at 1:20 AM)
Average temperature yesterday: 46 °F

High & Low Weather Summary for the Past Weeks

 TemperatureHumidityPressure
High59 °F (Apr 16, 2:20 PM)100% (Apr 15, 10:20 PM)30.45 "Hg (Apr 15, 10:20 PM)
Low32 °F (Apr 21, 6:20 AM)36% (Apr 21, 6:20 PM)29.39 "Hg (Apr 26, 1:20 PM)
Average44 °F74%29.90 "Hg
* Reported Apr 15 2:20 PM — Apr 30 2:20 PM, Löhne, Weather by CustomWeather, © 2016

Note: Actual official high and low records may vary slightly from our data, if they occured in-between our weather recording intervals... More about our weather records

Advertising

Löhne Weather History for the Previous 24 Hours

Scroll right to see more
 ConditionsComfort  
Time TempWeatherWind HumidityBarometerVisibility
2:20 PM
Sat, Apr 30
46 °FLight rain. More clouds than sun.3 mph87%30.09 "HgN/A
1:20 PM45 °FLight rain. Partly sunny.3 mph87%30.09 "HgN/A
12:20 PM45 °FDrizzle. Mostly cloudy.6 mph87%30.09 "HgN/A
11:20 AM45 °FDrizzle. Broken clouds.6 mph87%30.07 "HgN/A
10:20 AM45 °FLight rain. Broken clouds.6 mph81%30.07 "HgN/A
9:20 AM45 °FPartly sunny.8 mph87%30.04 "HgN/A
9:01 AM45 °FPartly sunny.9 mph87%30.04 "HgN/A
8:20 AM46 °FPartly sunny.2 mph82%30.04 "HgN/A
7:20 AM41 °FOvercast.1 mph93%30.01 "HgN/A
6:20 AM43 °FPassing clouds.1 mph87%30.01 "HgN/A
5:20 AM41 °FPassing clouds.1 mph93%30.01 "HgN/A
4:20 AM39 °FPassing clouds.5 mph93%30.01 "HgN/A
3:20 AM39 °FPassing clouds.5 mph93%29.98 "HgN/A
2:20 AM41 °FPassing clouds.5 mph93%30.01 "HgN/A
1:20 AM39 °FPartly cloudy.5 mph93%30.01 "HgN/A
12:20 AM41 °FPassing clouds.2 mph93%30.01 "HgN/A
11:20 PM
Fri, Apr 29
43 °FPassing clouds.2 mph87%30.01 "HgN/A
10:20 PM43 °FPassing clouds.1 mph93%30.01 "HgN/A
9:20 PM46 °FPartly sunny.7 mph82%30.01 "HgN/A
8:20 PM52 °FPartly sunny.12 mph47%29.98 "HgN/A
7:20 PM54 °FPartly sunny.10 mph44%29.95 "HgN/A
6:20 PM54 °FPartly sunny.13 mph47%29.95 "HgN/A
5:20 PM54 °FPartly sunny.13 mph44%29.95 "HgN/A
4:20 PM54 °FPartly sunny.12 mph47%29.95 "HgN/A
Weather by CustomWeather, © 2016

See weather overviewHow to use our weather pages